FW6672 Weather Reports


Display with metric or nautical units.
time (UTC)temp
F
wind
direction
speed
MPH
gust
MPH
rain 1hr
in
rain 24hr
in
rain mn
in
humidity
%
barometer
mb
20260906211748 86 324 5.0 8.0 0.00 0.00 0.00 41 1023.3
20260906211243 85 156 3.0 6.0 0.00 0.00 0.00 43 1023.6
20260906210738 85 2 2.0 2.0 0.00 0.00 0.00 40 1023.4
20260906210233 85 126 5.0 7.0 0.00 0.00 0.00 41 1023.6
20260906205728 86 108 6.0 9.0 0.00 0.00 0.00 40 1023.7
20260906205225 86 205 2.0 3.0 0.00 0.00 0.00 41 1023.7
20260906204724 87 156 6.0 8.0 0.00 0.00 0.00 40 1023.7
20260906204223 87 156 5.0 6.0 0.00 0.00 0.00 38 1023.9
20260906203723 87 161 7.0 13.0 0.00 0.00 0.00 38 1024.0
20260906203218 86 305 2.0 2.0 0.00 0.00 0.00 39 1024.3
20260906202716 87 94 5.0 8.0 0.00 0.00 0.00 39 1024.3
20260906202215 86 185 2.0 2.0 0.00 0.00 0.00 39 1024.3
20260906201710 87 112 5.0 6.0 0.00 0.00 0.00 38 1024.3
20260906201209 86 166 4.0 5.0 0.00 0.00 0.00 40 1024.3
20260906200705 86 310 3.0 6.0 0.00 0.00 0.00 40 1024.3
20260906200201 86 113 6.0 10.0 0.00 0.00 0.00 40 1024.4
20260906195656 86 357 6.0 8.0 0.00 0.00 0.00 42 1024.4
20260906195153 86 222 2.0 3.0 0.00 0.00 0.00 41 1024.6
20260906194648 86 11 5.0 6.0 0.00 0.00 0.00 41 1024.4
20260906194143 86 28 2.0 2.0 0.00 0.00 0.00 41 1024.6
20260906193638 86 60 5.0 7.0 0.00 0.00 0.00 40 1024.8
20260906193133 86 157 3.0 3.0 0.00 0.00 0.00 39 1024.6
20260906192629 85 318 2.0 5.0 0.00 0.00 0.00 42 1024.6
20260906192128 85 147 5.0 6.0 0.00 0.00 0.00 40 1024.8
20260906191623 85 64 5.0 6.0 0.00 0.00 0.00 42 1024.8
20260906191122 85 53 5.0 8.0 0.00 0.00 0.00 42 1025.1
20260906190617 85 125 7.0 8.0 0.00 0.00 0.00 41 1024.9
20260906190112 84 56 5.0 8.0 0.00 0.00 0.00 42 1025.1
20260906185610 83 176 3.0 3.0 0.00 0.00 0.00 43 1025.1
20260906185109 84 182 2.0 3.0 0.00 0.00 0.00 43 1025.2
20260906184604 84 59 4.0 6.0 0.00 0.00 0.00 42 1025.5
20260906184100 84 2 3.0 5.0 0.00 0.00 0.00 43 1025.5
20260906183556 83 29 6.0 9.0 0.00 0.00 0.00 44 1025.7
20260906183052 83 240 1.0 2.0 0.00 0.00 0.00 43 1025.7
20260906182546 83 320 4.0 5.0 0.00 0.00 0.00 42 1025.7
20260906182043 82 297 4.0 6.0 0.00 0.00 0.00 43 1026.1
20260906181538 81 333 3.0 5.0 0.00 0.00 0.00 42 1026.2
20260906181033 82 7 3.0 3.0 0.00 0.00 0.00 43 1026.2
20260906180528 82 263 0.0 0.0 0.00 0.00 0.00 42 1026.2
20260906180027 81 358 4.0 5.0 0.00 0.00 0.00 43 1026.2
20260906175521 82 327 5.0 6.0 0.00 0.00 0.00 41 1026.6
20260906175020 81 37 2.0 2.0 0.00 0.00 0.00 42 1026.5
20260906174519 81 178 3.0 3.0 0.00 0.00 0.00 42 1026.5
20260906174014 81 196 2.0 2.0 0.00 0.00 0.00 43 1026.8
20260906173509 80 315 2.0 2.0 0.00 0.00 0.00 41 1026.7
20260906173004 81 275 1.0 1.0 0.00 0.00 0.00 42 1026.8
20260906172459 80 283 0.0 1.0 0.00 0.00 0.00 43 1026.9
20260906171954 79 241 1.0 2.0 0.00 0.00 0.00 43 1026.7
20260906171449 80 287 2.0 2.0 0.00 0.00 0.00 42 1026.8
20260906170944 80 24 2.0 2.0 0.00 0.00 0.00 43 1026.7
20260906170441 79 274 1.0 1.0 0.00 0.00 0.00 43 1026.8
20260906165938 79 213 1.0 2.0 0.00 0.00 0.00 44 1027.1
20260906165436 78 245 0.0 1.0 0.00 0.00 0.00 45 1027.1
20260906164932 77 25 1.0 1.0 0.00 0.00 0.00 45 1027.1
20260906164430 78 115 4.0 5.0 0.00 0.00 0.00 44 1026.9
20260906163927 77 259 0.0 1.0 0.00 0.00 0.00 46 1027.2
20260906163422 78 244 1.0 2.0 0.00 0.00 0.00 46 1027.1
20260906162921 77 225 0.0 1.0 0.00 0.00 0.00 48 1027.2
20260906162419 76 297 1.0 1.0 0.00 0.00 0.00 48 1027.3
20260906161915 75 293 2.0 2.0 0.00 0.00 0.00 50 1027.3
20260906161414 75 324 5.0 6.0 0.00 0.00 0.00 50 1027.2
20260906160913 74 345 3.0 5.0 0.00 0.00 0.00 51 1027.2
20260906160407 73 302 3.0 3.0 0.00 0.00 0.00 52 1026.9
20260906155904 74 331 5.0 6.0 0.00 0.00 0.00 53 1026.9
20260906155359 74 324 3.0 3.0 0.00 0.00 0.00 53 1027.1
20260906154855 73 251 2.0 2.0 0.00 0.00 0.00 55 1026.9
20260906154349 73 249 1.0 2.0 0.00 0.00 0.00 56 1027.2
20260906153848 73 330 2.0 2.0 0.00 0.00 0.00 56 1027.3
20260906153347 72 333 5.0 6.0 0.00 0.00 0.00 57 1026.9
20260906152842 71 263 1.0 1.0 0.00 0.00 0.00 58 1026.9
20260906152337 71 251 1.0 1.0 0.00 0.00 0.00 59 1027.1
20260906151836 71 333 3.0 3.0 0.00 0.00 0.00 61 1027.2
20260906151332 71 277 3.0 3.0 0.00 0.00 0.00 60 1027.3
20260906150828 71 294 3.0 3.0 0.00 0.00 0.00 61 1027.2
20260906150323 70 228 0.0 1.0 0.00 0.00 0.00 64 1027.1
20260906145822 70 220 2.0 2.0 0.00 0.00 0.00 65 1026.9
20260906145321 69 317 3.0 5.0 0.00 0.00 0.00 67 1026.9
20260906144816 69 289 2.0 2.0 0.00 0.00 0.00 67 1026.7
20260906144311 68 262 2.0 2.0 0.00 0.00 0.00 69 1026.8
20260906143810 68 259 1.0 1.0 0.00 0.00 0.00 70 1026.8
20260906143308 67 197 3.0 5.0 0.00 0.00 0.00 71 1026.8
20260906142802 67 308 1.0 2.0 0.00 0.00 0.00 72 1027.1
20260906142257 66 255 2.0 2.0 0.00 0.00 0.00 72 1026.9
20260906141756 66 242 4.0 5.0 0.00 0.00 0.00 72 1026.7
20260906141251 66 312 2.0 2.0 0.00 0.00 0.00 72 1026.7
20260906140750 65 279 2.0 2.0 0.00 0.00 0.00 72 1026.8
20260906140245 65 286 2.0 3.0 0.00 0.00 0.00 72 1027.1
20260906135742 64 240 3.0 3.0 0.00 0.00 0.00 72 1026.8
20260906135238 64 259 2.0 2.0 0.00 0.00 0.00 73 1026.6
20260906134734 64 273 2.0 2.0 0.00 0.00 0.00 72 1026.5
20260906134229 63 239 3.0 3.0 0.00 0.00 0.00 71 1026.3
20260906133724 63 225 2.0 3.0 0.00 0.00 0.00 69 1026.5
20260906133220 63 269 1.0 2.0 0.00 0.00 0.00 67 1026.3
20260906132715 62 288 2.0 5.0 0.00 0.00 0.00 67 1026.3
20260906132210 62 337 3.0 3.0 0.00 0.00 0.00 68 1026.3
20260906131706 61 251 1.0 1.0 0.00 0.00 0.00 68 1026.3
20260906131201 61 252 1.0 1.0 0.00 0.00 0.00 68 1026.3
20260906130656 61 246 3.0 3.0 0.00 0.00 0.00 68 1026.2
20260906130151 61 233 3.0 3.0 0.00 0.00 0.00 68 1026.2
20260906125649 61 286 1.0 2.0 0.00 0.00 0.00 68 1026.5
20260906125148 61 283 1.0 2.0 0.00 0.00 0.00 69 1026.2
20260906124643 61 307 1.0 1.0 0.00 0.00 0.00 67 1026.2
20260906124139 61 297 2.0 2.0 0.00 0.00 0.00 68 1026.5
20260906123637 61 248 0.0 0.0 0.00 0.00 0.00 69 1026.5
20260906123133 60 255 0.0 1.0 0.00 0.00 0.00 69 1026.7
20260906122632 60 242 0.0 0.0 0.00 0.00 0.00 70 1026.6
20260906122128 60 259 0.0 0.0 0.00 0.00 0.00 70 1026.2
20260906121624 60 255 1.0 1.0 0.00 0.00 0.00 70 1026.5
20260906121120 60 248 1.0 1.0 0.00 0.00 0.00 70 1026.2
20260906120615 61 248 0.0 0.0 0.00 0.00 0.00 69 1026.2
20260906120113 61 247 0.0 1.0 0.00 0.00 0.00 68 1026.2
20260906115613 61 193 1.0 1.0 0.00 0.00 0.00 68 1026.2
20260906115108 61 281 2.0 2.0 0.00 0.00 0.00 68 1026.1
20260906114602 62 284 1.0 2.0 0.00 0.00 0.00 67 1026.0
20260906114057 62 225 1.0 1.0 0.00 0.00 0.00 67 1025.9
20260906113556 61 201 1.0 1.0 0.00 0.00 0.00 68 1026.0
20260906113052 61 289 0.0 1.0 0.00 0.00 0.00 68 1026.0
20260906112546 61 285 2.0 2.0 0.00 0.00 0.00 67 1026.0
20260906112043 62 233 0.0 0.0 0.00 0.00 0.00 66 1026.1
20260906111542 62 290 1.0 1.0 0.00 0.00 0.00 66 1025.9
20260906111037 62 298 1.0 1.0 0.00 0.00 0.00 65 1026.2
20260906110537 62 184 1.0 1.0 0.00 0.00 0.00 65 1025.9
20260906110036 62 331 2.0 2.0 0.00 0.00 0.00 65 1025.9
20260906105531 62 267 1.0 1.0 0.00 0.00 0.00 64 1026.0
20260906105028 61 267 2.0 3.0 0.00 0.00 0.00 65 1026.0
20260906104526 59 231 1.0 1.0 0.00 0.00 0.00 70 1025.9
20260906104021 59 242 0.0 0.0 0.00 0.00 0.00 72 1025.9
20260906103519 60 269 0.0 0.0 0.00 0.00 0.00 70 1025.9
20260906103015 60 242 0.0 0.0 0.00 0.00 0.00 70 1026.0
20260906102514 60 255 0.0 0.0 0.00 0.00 0.00 71 1025.9
20260906102009 60 242 0.0 0.0 0.00 0.00 0.00 73 1025.9
20260906101504 59 228 2.0 2.0 0.00 0.00 0.00 73 1026.2
20260906100959 59 228 0.0 0.0 0.00 0.00 0.00 73 1026.1
20260906100454 59 200 1.0 1.0 0.00 0.00 0.00 73 1026.0
20260906095948 59 242 0.0 0.0 0.00 0.00 0.00 72 1026.1
20260906095443 60 255 0.0 0.0 0.00 0.00 0.00 72 1026.2
20260906094938 60 234 0.0 1.0 0.00 0.00 0.00 71 1025.9
20260906094432 61 242 0.0 0.0 0.00 0.00 0.00 70 1025.9
20260906093928 62 248 1.0 1.0 0.00 0.00 0.00 67 1026.0
20260906093424 62 255 0.0 0.0 0.00 0.00 0.00 65 1026.0
20260906092919 61 259 0.0 0.0 0.00 0.00 0.00 67 1025.9
20260906092418 61 222 1.0 1.0 0.00 0.00 0.00 68 1026.0
20260906091914 61 248 0.0 0.0 0.00 0.00 0.00 69 1025.9
20260906091410 60 285 1.0 1.0 0.00 0.00 0.00 69 1026.1
20260906090906 60 242 0.0 0.0 0.00 0.00 0.00 69 1025.7
20260906090406 61 248 0.0 0.0 0.00 0.00 0.00 68 1025.5
20260906085900 62 254 0.0 0.0 0.00 0.00 0.00 66 1025.7
20260906085354 62 291 0.0 0.0 0.00 0.00 0.00 65 1025.6
20260906084848 63 242 0.0 0.0 0.00 0.00 0.00 64 1025.6
20260906084348 64 232 0.0 0.0 0.00 0.00 0.00 63 1025.9
20260906083843 64 255 0.0 0.0 0.00 0.00 0.00 62 1025.7
20260906083338 63 275 0.0 0.0 0.00 0.00 0.00 63 1025.7
20260906082832 64 267 0.0 0.0 0.00 0.00 0.00 63 1025.7
20260906082327 65 238 0.0 0.0 0.00 0.00 0.00 60 1026.0
20260906081823 66 216 1.0 1.0 0.00 0.00 0.00 58 1026.2
20260906081319 67 228 0.0 0.0 0.00 0.00 0.00 57 1026.1
20260906080815 66 272 0.0 0.0 0.00 0.00 0.00 56 1025.9
20260906080311 66 227 0.0 1.0 0.00 0.00 0.00 57 1026.1
20260906075810 66 175 2.0 2.0 0.00 0.00 0.00 56 1026.2
20260906075310 65 219 1.0 1.0 0.00 0.00 0.00 58 1026.2
20260906074806 65 254 0.0 0.0 0.00 0.00 0.00 59 1026.1
20260906074305 64 241 0.0 0.0 0.00 0.00 0.00 59 1026.0
20260906073804 65 248 0.0 0.0 0.00 0.00 0.00 59 1026.1
20260906073259 65 266 0.0 0.0 0.00 0.00 0.00 58 1026.2
20260906072755 66 256 0.0 0.0 0.00 0.00 0.00 57 1025.9
20260906072251 66 238 2.0 2.0 0.00 0.00 0.00 56 1026.0
20260906071747 66 266 0.0 0.0 0.00 0.00 0.00 56 1026.0
20260906071247 66 221 1.0 2.0 0.00 0.00 0.00 56 1026.1
20260906070743 66 216 1.0 1.0 0.00 0.00 0.00 55 1025.7
20260906070239 66 224 0.0 0.0 0.00 0.00 0.00 55 1025.9
20260906065738 67 259 0.0 0.0 0.00 0.00 0.00 54 1025.6
20260906065233 68 242 0.0 0.0 0.00 0.00 0.00 52 1025.7
20260906064729 68 245 1.0 1.0 0.00 0.00 0.00 52 1025.7
20260906064224 69 309 2.0 2.0 0.00 0.00 0.00 52 1025.9
20260906063719 69 250 1.0 1.0 0.00 0.00 0.00 52 1025.6
20260906063215 69 264 0.0 1.0 0.00 0.00 0.00 51 1025.6
20260906062710 69 204 3.0 3.0 0.00 0.00 0.00 51 1025.6
20260906062209 69 273 2.0 2.0 0.00 0.00 0.00 51 1025.7
20260906061705 70 302 3.0 5.0 0.00 0.00 0.00 49 1025.6
20260906061201 71 266 2.0 3.0 0.00 0.00 0.00 49 1026.0
20260906060657 71 277 5.0 7.0 0.00 0.00 0.00 47 1025.7
20260906060154 71 274 3.0 5.0 0.00 0.00 0.00 47 1026.0
20260906055649 71 223 1.0 2.0 0.00 0.00 0.00 48 1026.0
20260906055144 71 259 0.0 1.0 0.00 0.00 0.00 48 1026.0
20260906054640 71 263 0.0 0.0 0.00 0.00 0.00 48 1026.0
20260906054135 70 256 1.0 1.0 0.00 0.00 0.00 48 1026.0
20260906053631 70 262 1.0 1.0 0.00 0.00 0.00 48 1025.9
20260906053126 71 271 0.0 1.0 0.00 0.00 0.00 47 1026.0
20260906052621 71 263 0.0 1.0 0.00 0.00 0.00 46 1026.1
20260906052118 71 258 0.0 0.0 0.00 0.00 0.00 46 1026.1
20260906051614 71 259 0.0 0.0 0.00 0.00 0.00 45 1026.1
20260906051109 71 265 0.0 0.0 0.00 0.00 0.00 45 1025.9
20260906050604 72 254 0.0 0.0 0.00 0.00 0.00 44 1026.0
20260906050059 72 228 0.0 1.0 0.00 0.00 0.00 44 1026.3
20260906045557 73 250 0.0 0.0 0.00 0.00 0.00 43 1026.1
20260906045053 73 251 0.0 0.0 0.00 0.00 0.00 43 1026.1
20260906044549 74 257 0.0 0.0 0.00 0.00 0.00 43 1026.3
20260906044044 74 264 1.0 1.0 0.00 0.00 0.00 44 1026.3
20260906043539 74 208 1.0 1.0 0.00 0.00 0.00 43 1026.2
20260906043036 75 257 0.0 0.0 0.00 0.00 0.00 42 1026.2
20260906042534 76 295 0.0 1.0 0.00 0.00 0.00 40 1026.1
20260906042029 74 189 1.0 2.0 0.00 0.00 0.00 43 1026.3
20260906041526 74 294 1.0 1.0 0.00 0.00 0.00 50 1026.3
20260906041025 74 259 0.0 0.0 0.00 0.00 0.00 52 1026.2
20260906040520 73 239 1.0 1.0 0.00 0.00 0.00 54 1026.3
20260906040016 74 301 1.0 2.0 0.00 0.00 0.00 56 1026.2
20260906035511 75 273 1.0 1.0 0.00 0.00 0.00 55 1026.3
20260906035007 76 235 1.0 1.0 0.00 0.00 0.00 54 1026.3
20260906034507 76 188 3.0 3.0 0.00 0.00 0.00 55 1026.3
20260906034001 75 186 4.0 5.0 0.00 0.00 0.00 54 1026.2
20260906033456 75 163 3.0 5.0 0.00 0.00 0.00 54 1026.1
20260906032952 75 264 0.0 0.0 0.00 0.00 0.00 54 1026.1
20260906032448 76 251 0.0 0.0 0.00 0.00 0.00 53 1026.2
20260906031943 76 294 2.0 2.0 0.00 0.00 0.00 52 1026.2
20260906031438 77 300 3.0 3.0 0.00 0.00 0.00 52 1026.3
20260906030933 77 343 6.0 7.0 0.00 0.00 0.00 51 1026.2
20260906030428 77 1 7.0 9.0 0.00 0.00 0.00 51 1026.1
20260906025922 75 333 5.0 6.0 0.00 0.00 0.00 44 1026.1
20260906025417 73 304 2.0 2.0 0.00 0.00 0.00 44 1025.9
20260906024916 72 267 1.0 1.0 0.00 0.00 0.00 43 1024.9
20260906024415 72 235 0.0 0.0 0.00 0.00 0.00 43 1024.9
20260906023910 73 240 0.0 0.0 0.00 0.00 0.00 41 1024.8
20260906023407 73 227 0.0 0.0 0.00 0.00 0.00 41 1024.5
20260906022906 74 234 0.0 0.0 0.00 0.00 0.00 40 1024.5
20260906022401 75 218 0.0 0.0 0.00 0.00 0.00 40 1024.3
20260906021857 76 229 0.0 0.0 0.00 0.00 0.00 39 1024.5
20260906021356 77 228 0.0 0.0 0.00 0.00 0.00 38 1024.4
20260906020851 78 216 1.0 1.0 0.00 0.00 0.00 37 1024.5
20260906020351 78 183 2.0 2.0 0.00 0.00 0.00 36 1024.3
20260906015846 78 177 1.0 2.0 0.00 0.00 0.00 36 1024.4
20260906015344 78 192 1.0 1.0 0.00 0.00 0.00 36 1024.5
20260906014839 79 201 2.0 2.0 0.00 0.00 0.00 36 1024.4
20260906014333 79 161 3.0 3.0 0.00 0.00 0.00 35 1024.4
20260906013830 80 189 4.0 5.0 0.00 0.00 0.00 34 1024.3
20260906013325 80 164 3.0 3.0 0.00 0.00 0.00 35 1024.3
20260906012820 80 164 4.0 5.0 0.00 0.00 0.00 35 1024.2
20260906012315 80 192 2.0 2.0 0.00 0.00 0.00 35 1024.0
20260906011810 81 182 3.0 3.0 0.00 0.00 0.00 34 1024.4
20260906011310 81 174 2.0 2.0 0.00 0.00 0.00 35 1024.5
20260906010806 81 188 4.0 5.0 0.00 0.00 0.00 34 1024.3
20260906010302 81 176 5.0 6.0 0.00 0.00 0.00 34 1024.4
20260906005756 81 170 6.0 6.0 0.00 0.00 0.00 34 1024.4
20260906005256 82 187 5.0 5.0 0.00 0.00 0.00 35 1024.4
20260906004755 83 179 4.0 5.0 0.00 0.00 0.00 33 1024.4
20260906004249 83 181 2.0 2.0 0.00 0.00 0.00 32 1024.3
20260906003744 83 169 2.0 2.0 0.00 0.00 0.00 31 1024.4
20260906003240 84 163 3.0 3.0 0.00 0.00 0.00 32 1024.3
20260906002735 84 153 4.0 5.0 0.00 0.00 0.00 31 1024.4
20260906002234 84 166 3.0 5.0 0.00 0.00 0.00 31 1024.3
20260906001730 85 196 3.0 3.0 0.00 0.00 0.00 31 1024.4
20260906001225 85 171 3.0 3.0 0.00 0.00 0.00 31 1024.4
20260906000721 85 153 3.0 3.0 0.00 0.00 0.00 32 1024.2
20260906000215 85 175 2.0 2.0 0.00 0.00 0.00 32 1024.3
20260905235715 84 175 3.0 3.0 0.00 0.00 0.00 32 1024.2
20260905235210 84 190 3.0 3.0 0.00 0.00 0.00 31 1024.3
20260905234705 84 163 3.0 3.0 0.00 0.00 0.00 31 1024.0
20260905234201 86 178 4.0 5.0 0.00 0.00 0.00 31 1024.3
20260905233656 86 160 3.0 5.0 0.00 0.00 0.00 30 1024.3
20260905233155 86 157 3.0 3.0 0.00 0.00 0.00 30 1024.3
20260905232650 86 182 4.0 5.0 0.00 0.00 0.00 30 1024.0
20260905232146 85 157 7.0 8.0 0.00 0.00 0.00 29 1024.0
20260905231641 86 131 4.0 6.0 0.00 0.00 0.00 29 1024.0
20260905231137 87 155 4.0 6.0 0.00 0.00 0.00 28 1024.2
20260905230633 87 183 2.0 2.0 0.00 0.00 0.00 27 1024.0
20260905230131 87 258 1.0 1.0 0.00 0.00 0.00 27 1024.0
20260905225625 87 263 1.0 2.0 0.00 0.00 0.00 26 1024.2
20260905225120 89 179 4.0 5.0 0.00 0.00 0.00 26 1024.0
20260905224619 88 258 0.0 1.0 0.00 0.00 0.00 25 1024.0
20260905224119 88 203 3.0 3.0 0.00 0.00 0.00 26 1024.2
20260905223616 86 158 1.0 2.0 0.00 0.00 0.00 27 1024.2
20260905223113 86 284 1.0 1.0 0.00 0.00 0.00 27 1024.2
20260905222613 86 319 1.0 2.0 0.00 0.00 0.00 27 1024.2
20260905222108 85 310 2.0 2.0 0.00 0.00 0.00 27 1024.2
20260905221604 85 289 1.0 1.0 0.00 0.00 0.00 28 1024.0
20260905221100 87 300 1.0 1.0 0.00 0.00 0.00 28 1024.2
20260905220555 88 267 1.0 1.0 0.00 0.00 0.00 25 1024.2
20260905220051 88 187 1.0 1.0 0.00 0.00 0.00 28 1024.2
20260905215550 89 328 1.0 1.0 0.00 0.00 0.00 27 1024.2
20260905215046 87 249 0.0 0.0 0.00 0.00 0.00 27 1024.3
20260905214542 88 329 3.0 3.0 0.00 0.00 0.00 27 1024.2
20260905214037 87 244 1.0 1.0 0.00 0.00 0.00 27 1024.5
20260905213532 87 340 3.0 5.0 0.00 0.00 0.00 28 1024.4
20260905213028 87 309 1.0 1.0 0.00 0.00 0.00 30 1024.5
20260905212522 88 345 2.0 2.0 0.00 0.00 0.00 29 1024.5